Regional Weather Roundup
Issued by NWS

Home | Current Version | Previous Version | Graphics & Text | Print | Product List | Glossary On
Versions: 1 2 3 4 5 6 7 8 9 10 11 12 13 14 15 16 17 18 19 20 21 22 23 24 25 26 27 28 29 30 31 32 33 34 35 36 37 38 39 40 41 42 43 44 45 46 47 48 49 50
000
ASUS45 KBOU 220007
RWRCO

WEATHER ROUNDUP FOR COLORADO
NATIONAL WEATHER SERVICE DENVER/BOULDER CO
500 PM MST FRI NOV 21 2014

NOTE: "FAIR" INDICATES FEW OR NO CLOUDS BELOW 12000 FEET WITH NO
SIGNIFICANT WEATHER AND/OR OBSTRUCTIONS TO VISIBILITY.

COZ001>005-013-030-031-220100-
...NORTHWEST COLORADO...

CITY           SKY/WX    TMP DP  RH WIND       PRES   REMARKS
CRAIG          CLEAR     35  21  56 SW3       30.02R
HAYDEN         CLEAR     39  18  41 SE5       30.03S
MEEKER         CLEAR     40  22  48 CALM      30.01S
MOUNT WERNER   NOT AVBL
STEAMBOAT SPGS CLEAR     37  18  46 SE5       30.03R
WALDEN         CLEAR     32  16  51 S8        30.02S WCI  25
$$

COZ006>008-011-220100-
...WEST CENTRAL VALLEYS...

CITY           SKY/WX    TMP DP  RH WIND       PRES   REMARKS
GRAND JUNCTION CLEAR     44  18  35 NW6       30.01S
MONTROSE       CLEAR     45  18  34 NW7       30.04R
EAGLE          CLEAR     43  19  39 CALM      30.04R
RIFLE          CLEAR     40  22  48 S6        30.02R
DELTA          CLEAR     50  18  28 SW8       30.02R
NUCLA          CLEAR     46  19  34 CALM      30.07R
$$

COZ017>023-064>068-220100-
...SOUTHWEST COLORADO...

CITY           SKY/WX    TMP DP  RH WIND       PRES   REMARKS
DURANGO        PTCLDY    44  19  36 SW3       30.04R
CORTEZ         CLEAR     44  21  40 W7        30.04R
PAGOSA SPRINGS PTCLDY    40  16  39 CALM      30.07R
TELLURIDE      PTCLDY    35  19  52 W5        30.10R WCI  30
WOLF CREEK PAS PTCLDY    21  12  68 SW10      30.13S WCI  10
$$

COZ009-010-012-014-032>034-037-058>063-220100-
...CENTRAL COLORADO...

CITY           SKY/WX    TMP DP  RH WIND       PRES   REMARKS
ASPEN          CLEAR     32  18  56 SW7       30.05R WCI  26
BUENA VISTA    CLEAR     33  17  50 S8        30.03R WCI  27
COPPER MTN     CLEAR     23   9  54 W9        30.11R WCI  13
BERTHOUD PASS  FAIR      16  12  86 NW23G29   30.09R WCI  -2
COTTONWOOD PAS CLEAR     37   7  28 W13G18    30.07R
GUNNISON       CLEAR     34  18  51 N5        30.10S WCI  30
KREMMLING      CLEAR     36  18  48 CALM      30.04S
LEADVILLE      CLEAR     28  10  46 N5        30.07R WCI  23
MONARCH PASS   CLEAR     19  12  73 SW17      30.23R WCI   4
SALIDA         CLEAR     43  13  29 SW13G23   30.10R
SUNLIGHT       CLEAR     28  19  69 CALM      30.12S
WILKERSON PASS CLEAR     28   7  40 N8        30.12R WCI  20
$$

COZ069>075-220100-
...SAN LUIS VALLEY/SANGRE DE CRISTO MOUNTAINS...

CITY           SKY/WX    TMP DP  RH WIND       PRES   REMARKS
ALAMOSA        PTCLDY    38  13  35 SE3       30.04R
LA VETA PASS   NOT AVBL
SAGUACHE       PTCLDY    36  16  44 E7        30.07R
$$

COZ035-036-038>040-220100-
...NORTHERN COLORADO FRONT RANGE...

CITY           SKY/WX    TMP DP  RH WIND       PRES   REMARKS
DENVER INTL AP PTCLDY    46  26  45 E8        29.94R
DMNS CITY PARK   N/A     47  19  33 E2        29.94R
AURORA         PTCLDY    47  22  37 SE6       29.95R
FRONT RANGE AP NOT AVBL
ERIE MUNI ARPT PTCLDY    45  24  43 S3        29.93R
BOULDER MUN AP PTCLDY    48  27  43 CALM      29.93S
CENTENNIAL     PTCLDY    46  21  37 E3        29.95R
BROOMFIELD     MOCLDY    50  16  25 NW5       29.95R
FORT COLLINS   PTCLDY    46  27  46 CALM      29.94S
LONGMONT       PTCLDY    42  32  65 W3        29.95R
$$

COZ041-046-047-076>085-087-088-220100-
...PIKES PEAK/PALMER DIVIDE AND SOUTHERN FOOTHILLS...

CITY           SKY/WX    TMP DP  RH WIND       PRES   REMARKS
COLO. SPRINGS  PTCLDY    44  17  33 S9        29.98R
A. F. ACADEMY  CLEAR     45  14  28 NW3       29.97R
ELLICOTT       LGT RAIN  35  20  54 SE6       29.97R WCI  30
FALCON         NOT AVBL
FORT CARSON    CLEAR     45  22  41 SW6       29.96R
LIMON          CLEAR     34  18  52 N6        29.95R WCI  29
MONUMENT HILL  CLEAR     39  16  38 CALM      29.98R
TRINIDAD       MOCLDY    45  29  53 S6        29.96R
$$

COZ042>045-048>051-090-091-220100-
...NORTHEAST COLORADO...

CITY           SKY/WX    TMP DP  RH WIND       PRES   REMARKS
GREELEY ARPT   PTCLDY    43  19  39 CALM      29.93R
AKRON          PTCLDY    46  19  34 N3        29.92R
BURLINGTON     PTCLDY    40  22  48 S10       29.92R
WRAY           CLEAR     49  24  36 CALM      29.90R
STERLING       PTCLDY    45  23  42 SW5       29.89R
HOLYOKE        CLEAR     41  19  42 SE6       29.89S
FORT MORGAN    PTCLDY    47  17  30 CALM      29.92S
$$

COZ086-089-092>099-220100-
...SOUTHEAST COLORADO...

CITY           SKY/WX    TMP DP  RH WIND       PRES   REMARKS
PUEBLO         MOCLDY    48  30  49 E6        29.93R
LA JUNTA       CLOUDY    45  32  60 SE7       29.93S
LAMAR          PTCLDY    44  29  55 S5        29.92S
SPRINGFIELD      N/A     47  28  47 E5        29.94S
$$


USA.gov is the U.S. government's official web portal to all federal, state and local government web resources and services.